Time,TemperatureF,DewpointF,PressureIn,WindDirection,WindDirectionDegrees,WindSpeedMPH,WindSpeedGustMPH,Humidity,HourlyPrecipIn,Conditions,Clouds,dailyrainin,SoftwareType,DateUTC
2013-09-01 13:40:00,64.4,26.9,0.00,North,0,0.0,0.0,24,0.00,,---,0.00,VWS V13.01,2013-09-01 19:40:00,
2013-09-01 13:45:00,64.6,27.0,0.00,North,0,0.0,0.0,24,0.00,,---,0.00,VWS V13.01,2013-09-01 19:45:00,
2013-09-01 13:50:00,64.8,28.1,0.00,North,0,0.0,0.0,25,0.00,,---,0.00,VWS V13.01,2013-09-01 19:50:00,
2013-09-01 13:55:00,64.8,28.1,0.00,North,0,0.0,0.0,25,0.00,,---,0.00,VWS V13.01,2013-09-01 19:55:00,
2013-09-01 14:00:00,64.9,28.3,0.00,North,0,0.0,0.0,25,0.00,,---,0.00,VWS V13.01,2013-09-01 20:00:00,
2013-09-01 14:06:00,64.9,28.3,0.00,North,0,0.0,0.0,25,0.00,,---,0.00,VWS V13.01,2013-09-01 20:06:00,
2013-09-01 14:11:00,64.9,28.3,0.00,North,0,0.0,0.0,25,0.00,,---,0.00,VWS V13.01,2013-09-01 20:11:00,
2013-09-01 14:16:00,64.8,28.1,0.00,North,0,0.0,0.0,25,0.00,,---,0.00,VWS V13.01,2013-09-01 20:16:00,
2013-09-01 14:21:00,64.8,29.1,0.00,North,0,0.0,0.0,26,0.00,,---,0.00,VWS V13.01,2013-09-01 20:21:00,
2013-09-01 14:26:00,64.6,29.9,0.00,North,0,0.0,0.0,27,0.00,,---,0.00,VWS V13.01,2013-09-01 20:26:00,
2013-09-01 14:31:00,64.4,29.7,0.00,North,0,0.0,0.0,27,0.00,,---,0.00,VWS V13.01,2013-09-01 20:31:00,
2013-09-01 14:36:00,64.4,29.7,0.00,North,0,0.0,0.0,27,0.00,,---,0.00,VWS V13.01,2013-09-01 20:36:00,
2013-09-01 14:41:00,64.4,29.7,0.00,North,0,0.0,0.0,27,0.00,,---,0.00,VWS V13.01,2013-09-01 20:41:00,
2013-09-01 14:46:00,64.2,30.5,0.00,North,0,0.0,0.0,28,0.00,,---,0.00,VWS V13.01,2013-09-01 20:46:00,
2013-09-01 14:51:00,64.2,30.5,0.00,North,0,0.0,0.0,28,0.00,,---,0.00,VWS V13.01,2013-09-01 20:51:00,
2013-09-01 14:56:00,64.2,30.5,0.00,North,0,0.0,0.0,28,0.00,,---,0.00,VWS V13.01,2013-09-01 20:56:00,
2013-09-01 15:01:00,64.2,31.3,0.00,North,0,0.0,0.0,29,0.00,,---,0.00,VWS V13.01,2013-09-01 21:01:00,
2013-09-01 15:06:00,64.4,30.6,0.00,North,0,0.0,0.0,28,0.00,,---,0.00,VWS V13.01,2013-09-01 21:06:00,
2013-09-01 15:11:00,64.4,30.6,0.00,North,0,0.0,0.0,28,0.00,,---,0.00,VWS V13.01,2013-09-01 21:11:00,
2013-09-01 15:17:00,64.6,31.6,0.00,North,0,0.0,0.0,29,0.00,,---,0.00,VWS V13.01,2013-09-01 21:17:00,
2013-09-01 15:22:00,64.8,31.8,0.00,North,0,0.0,0.0,29,0.00,,---,0.00,VWS V13.01,2013-09-01 21:22:00,
2013-09-01 15:27:00,64.9,32.0,0.00,North,0,0.0,0.0,29,0.00,,---,0.00,VWS V13.01,2013-09-01 21:27:00,
2013-09-01 15:32:00,64.9,32.0,0.00,North,0,0.0,0.0,29,0.00,,---,0.00,VWS V13.01,2013-09-01 21:32:00,
2013-09-01 15:37:00,64.9,32.8,0.00,North,0,0.0,0.0,30,0.00,,---,0.00,VWS V13.01,2013-09-01 21:37:00,
2013-09-01 15:42:00,65.1,32.9,0.00,North,0,0.0,0.0,30,0.00,,---,0.00,VWS V13.01,2013-09-01 21:42:00,
2013-09-01 15:47:00,65.1,32.9,0.00,North,0,0.0,0.0,30,0.00,,---,0.00,VWS V13.01,2013-09-01 21:47:00,
2013-09-01 15:52:00,65.1,32.9,0.00,North,0,0.0,0.0,30,0.00,,---,0.00,VWS V13.01,2013-09-01 21:52:00,
2013-09-01 15:57:00,65.1,32.9,0.00,North,0,0.0,0.0,30,0.00,,---,0.00,VWS V13.01,2013-09-01 21:57:00,
2013-09-01 16:02:00,65.1,32.9,0.00,North,0,0.0,0.0,30,0.00,,---,0.00,VWS V13.01,2013-09-01 22:02:00,
2013-09-01 16:07:00,65.1,32.9,0.00,North,0,0.0,0.0,30,0.00,,---,0.00,VWS V13.01,2013-09-01 22:07:00,
2013-09-01 16:12:00,65.1,32.9,0.00,North,0,0.0,0.0,30,0.00,,---,0.00,VWS V13.01,2013-09-01 22:12:00,
2013-09-01 16:17:00,65.1,32.9,0.00,North,0,0.0,0.0,30,0.00,,---,0.00,VWS V13.01,2013-09-01 22:17:00,
2013-09-01 16:23:00,64.8,32.6,0.00,North,0,0.0,0.0,30,0.00,,---,0.00,VWS V13.01,2013-09-01 22:23:00,
2013-09-01 16:28:00,64.2,33.0,0.00,North,0,0.0,0.0,31,0.00,,---,0.00,VWS V13.01,2013-09-01 22:28:00,
2013-09-01 16:33:00,64.0,32.8,0.00,North,0,0.0,0.0,31,0.00,,---,0.00,VWS V13.01,2013-09-01 22:33:00,
2013-09-01 16:38:00,63.9,32.7,0.00,North,0,0.0,0.0,31,0.00,,---,0.00,VWS V13.01,2013-09-01 22:38:00,
2013-09-01 16:43:00,63.9,32.7,0.00,North,0,0.0,0.0,31,0.00,,---,0.00,VWS V13.01,2013-09-01 22:43:00,
2013-09-01 16:48:00,63.9,32.7,0.00,North,0,0.0,0.0,31,0.00,,---,0.00,VWS V13.01,2013-09-01 22:48:00,
2013-09-01 16:56:00,63.9,33.5,0.00,North,0,0.0,0.0,32,0.00,,---,0.00,VWS V13.01,2013-09-01 22:56:00,
2013-09-01 17:01:00,63.9,33.5,0.00,North,0,0.0,0.0,32,0.00,,---,0.00,VWS V13.01,2013-09-01 23:01:00,
2013-09-01 17:06:00,63.9,33.5,0.00,North,0,0.0,0.0,32,0.00,,---,0.00,VWS V13.01,2013-09-01 23:06:00,
2013-09-01 17:11:00,63.9,33.5,0.00,North,0,0.0,0.0,32,0.00,,---,0.00,VWS V13.01,2013-09-01 23:11:00,
2013-09-01 17:16:00,63.9,33.5,0.00,North,0,0.0,0.0,32,0.00,,---,0.00,VWS V13.01,2013-09-01 23:16:00,
2013-09-01 17:21:00,63.9,33.5,0.00,North,0,0.0,0.0,32,0.00,,---,0.00,VWS V13.01,2013-09-01 23:21:00,
2013-09-01 17:26:00,63.9,33.5,0.00,North,0,0.0,0.0,32,0.00,,---,0.00,VWS V13.01,2013-09-01 23:26:00,
2013-09-01 17:32:00,63.9,33.5,0.00,North,0,0.0,0.0,32,0.00,,---,0.00,VWS V13.01,2013-09-01 23:32:00,
2013-09-01 17:37:00,63.7,33.3,0.00,North,0,0.0,0.0,32,0.00,,---,0.00,VWS V13.01,2013-09-01 23:37:00,
2013-09-01 17:42:00,63.7,34.1,0.00,North,0,0.0,0.0,33,0.00,,---,0.00,VWS V13.01,2013-09-01 23:42:00,
2013-09-01 17:47:00,63.9,34.2,0.00,North,0,0.0,0.0,33,0.00,,---,0.00,VWS V13.01,2013-09-01 23:47:00,
2013-09-01 17:52:00,63.7,34.1,0.00,North,0,0.0,0.0,33,0.00,,---,0.00,VWS V13.01,2013-09-01 23:52:00,
2013-09-01 17:57:00,63.7,34.1,0.00,North,0,0.0,0.0,33,0.00,,---,0.00,VWS V13.01,2013-09-01 23:57:00,
2013-09-01 18:02:00,63.5,33.9,0.00,North,0,0.0,0.0,33,0.00,,---,0.00,VWS V13.01,2013-09-02 00:02:00,
2013-09-01 18:07:00,63.5,33.9,0.00,North,0,0.0,0.0,33,0.00,,---,0.00,VWS V13.01,2013-09-02 00:07:00,
2013-09-01 18:12:00,63.5,33.9,0.00,North,0,0.0,0.0,33,0.00,,---,0.00,VWS V13.01,2013-09-02 00:12:00,
2013-09-01 18:17:00,63.5,33.9,0.00,North,0,0.0,0.0,33,0.00,,---,0.00,VWS V13.01,2013-09-02 00:17:00,
2013-09-01 18:22:00,63.5,33.9,0.00,North,0,0.0,0.0,33,0.00,,---,0.00,VWS V13.01,2013-09-02 00:22:00,
2013-09-01 18:27:00,63.5,33.9,0.00,North,0,0.0,0.0,33,0.00,,---,0.00,VWS V13.01,2013-09-02 00:27:00,
2013-09-01 18:32:00,63.5,33.9,0.00,North,0,0.0,0.0,33,0.00,,---,0.00,VWS V13.01,2013-09-02 00:32:00,
2013-09-01 18:37:00,63.3,33.8,0.00,North,0,0.0,0.0,33,0.00,,---,0.00,VWS V13.01,2013-09-02 00:37:00,
2013-09-01 18:42:00,63.3,33.8,0.00,North,0,0.0,0.0,33,0.00,,---,0.00,VWS V13.01,2013-09-02 00:42:00,
2013-09-01 18:47:00,63.1,33.6,0.00,North,0,0.0,0.0,33,0.00,,---,0.00,VWS V13.01,2013-09-02 00:47:00,
2013-09-01 18:52:00,63.1,33.6,0.00,North,0,0.0,0.0,33,0.00,,---,0.00,VWS V13.01,2013-09-02 00:52:00,
2013-09-01 18:57:00,63.1,33.6,0.00,North,0,0.0,0.0,33,0.00,,---,0.00,VWS V13.01,2013-09-02 00:57:00,
2013-09-01 19:02:00,63.1,33.6,0.00,North,0,0.0,0.0,33,0.00,,---,0.00,VWS V13.01,2013-09-02 01:02:00,
2013-09-01 19:07:00,63.1,33.6,0.00,North,0,0.0,0.0,33,0.00,,---,0.00,VWS V13.01,2013-09-02 01:07:00,
2013-09-01 19:12:00,63.1,33.6,0.00,North,0,0.0,0.0,33,0.00,,---,0.00,VWS V13.01,2013-09-02 01:12:00,
2013-09-01 19:17:00,63.1,33.6,0.00,North,0,0.0,0.0,33,0.00,,---,0.00,VWS V13.01,2013-09-02 01:17:00,
2013-09-01 19:23:00,63.1,33.6,0.00,North,0,0.0,0.0,33,0.00,,---,0.00,VWS V13.01,2013-09-02 01:23:00,
2013-09-01 19:28:00,63.0,33.4,0.00,North,0,0.0,0.0,33,0.00,,---,0.00,VWS V13.01,2013-09-02 01:28:00,
2013-09-01 19:33:00,63.0,33.4,0.00,North,0,0.0,0.0,33,0.00,,---,0.00,VWS V13.01,2013-09-02 01:33:00,
2013-09-01 19:38:00,63.0,33.4,0.00,North,0,0.0,0.0,33,0.00,,---,0.00,VWS V13.01,2013-09-02 01:38:00,
2013-09-01 19:43:00,63.0,34.2,0.00,North,0,0.0,0.0,34,0.00,,---,0.00,VWS V13.01,2013-09-02 01:43:00,
2013-09-01 19:48:00,63.1,34.3,0.00,North,0,0.0,0.0,34,0.00,,---,0.00,VWS V13.01,2013-09-02 01:48:00,
2013-09-01 19:53:00,63.1,34.3,0.00,North,0,0.0,0.0,34,0.00,,---,0.00,VWS V13.01,2013-09-02 01:53:00,
2013-09-01 19:58:00,63.0,34.2,0.00,North,0,0.0,0.0,34,0.00,,---,0.00,VWS V13.01,2013-09-02 01:58:00,
2013-09-01 20:03:00,63.0,34.2,0.00,North,0,0.0,0.0,34,0.00,,---,0.00,VWS V13.01,2013-09-02 02:03:00,
2013-09-01 20:08:00,63.0,34.2,0.00,North,0,0.0,0.0,34,0.00,,---,0.00,VWS V13.01,2013-09-02 02:08:00,
2013-09-01 20:13:00,63.0,34.2,0.00,North,0,0.0,0.0,34,0.00,,---,0.00,VWS V13.01,2013-09-02 02:13:00,
2013-09-01 20:18:00,63.0,34.2,0.00,North,0,0.0,0.0,34,0.00,,---,0.00,VWS V13.01,2013-09-02 02:18:00,
2013-09-01 20:23:00,63.0,34.2,0.00,North,0,0.0,0.0,34,0.00,,---,0.00,VWS V13.01,2013-09-02 02:23:00,
2013-09-01 20:28:00,63.1,34.3,0.00,North,0,0.0,0.0,34,0.00,,---,0.00,VWS V13.01,2013-09-02 02:28:00,
2013-09-01 20:33:00,63.1,34.3,0.00,North,0,0.0,0.0,34,0.00,,---,0.00,VWS V13.01,2013-09-02 02:33:00,
2013-09-01 20:38:00,63.0,34.2,0.00,North,0,0.0,0.0,34,0.00,,---,0.00,VWS V13.01,2013-09-02 02:38:00,
2013-09-01 20:44:00,63.0,34.2,0.00,North,0,0.0,0.0,34,0.00,,---,0.00,VWS V13.01,2013-09-02 02:44:00,
2013-09-01 20:49:00,63.0,34.2,0.00,North,0,0.0,0.0,34,0.00,,---,0.00,VWS V13.01,2013-09-02 02:49:00,
2013-09-01 20:54:00,63.0,34.2,0.00,North,0,0.0,0.0,34,0.00,,---,0.00,VWS V13.01,2013-09-02 02:54:00,
2013-09-01 20:59:00,63.0,34.2,0.00,North,0,0.0,0.0,34,0.00,,---,0.00,VWS V13.01,2013-09-02 02:59:00,
2013-09-01 21:04:00,62.8,34.0,0.00,North,0,0.0,0.0,34,0.00,,---,0.00,VWS V13.01,2013-09-02 03:04:00,
2013-09-01 21:09:00,62.8,34.0,0.00,North,0,0.0,0.0,34,0.00,,---,0.00,VWS V13.01,2013-09-02 03:09:00,
2013-09-01 21:14:00,62.8,34.0,0.00,North,0,0.0,0.0,34,0.00,,---,0.00,VWS V13.01,2013-09-02 03:14:00,
2013-09-01 21:19:00,62.6,33.9,0.00,North,0,0.0,0.0,34,0.00,,---,0.00,VWS V13.01,2013-09-02 03:19:00,
2013-09-01 21:24:00,62.6,33.9,0.00,North,0,0.0,0.0,34,0.00,,---,0.00,VWS V13.01,2013-09-02 03:24:00,
2013-09-01 21:29:00,62.6,33.9,0.00,North,0,0.0,0.0,34,0.00,,---,0.00,VWS V13.01,2013-09-02 03:29:00,
2013-09-01 21:34:00,62.6,33.9,0.00,North,0,0.0,0.0,34,0.00,,---,0.00,VWS V13.01,2013-09-02 03:34:00,
2013-09-01 21:39:00,62.4,33.7,0.00,North,0,0.0,0.0,34,0.00,,---,0.00,VWS V13.01,2013-09-02 03:39:00,
2013-09-01 21:44:00,62.4,33.7,0.00,North,0,0.0,0.0,34,0.00,,---,0.00,VWS V13.01,2013-09-02 03:44:00,
2013-09-01 21:49:00,62.4,33.7,0.00,North,0,0.0,0.0,34,0.00,,---,0.00,VWS V13.01,2013-09-02 03:49:00,
2013-09-01 21:54:00,62.4,33.7,0.00,North,0,0.0,0.0,34,0.00,,---,0.00,VWS V13.01,2013-09-02 03:54:00,
2013-09-01 21:59:00,62.4,33.7,0.00,North,0,0.0,0.0,34,0.00,,---,0.00,VWS V13.01,2013-09-02 03:59:00,
2013-09-01 22:01:00,62.4,33.7,0.00,North,0,0.0,0.0,34,0.00,,---,0.00,VWS V13.01,2013-09-02 04:01:00,
2013-09-01 22:02:00,62.4,33.7,0.00,North,0,0.0,0.0,34,0.00,,---,0.00,VWS V13.01,2013-09-02 04:02:00,
2013-09-01 22:04:00,62.4,33.7,0.00,North,0,0.0,0.0,34,0.00,,---,0.00,VWS V13.01,2013-09-02 04:04:00,
2013-09-01 22:09:00,62.2,33.5,0.00,North,0,0.0,0.0,34,0.00,,---,0.00,VWS V13.01,2013-09-02 04:09:00,
2013-09-01 22:15:00,62.2,33.5,0.00,North,0,0.0,0.0,34,0.00,,---,0.00,VWS V13.01,2013-09-02 04:15:00,
2013-09-01 22:20:00,62.4,33.7,0.00,North,0,0.0,0.0,34,0.00,,---,0.00,VWS V13.01,2013-09-02 04:20:00,
2013-09-01 22:25:00,62.4,33.7,0.00,North,0,0.0,0.0,34,0.00,,---,0.00,VWS V13.01,2013-09-02 04:25:00,
2013-09-01 22:30:00,62.4,33.7,0.00,North,0,0.0,0.0,34,0.00,,---,0.00,VWS V13.01,2013-09-02 04:30:00,
2013-09-01 22:35:00,62.4,33.7,0.00,North,0,0.0,0.0,34,0.00,,---,0.00,VWS V13.01,2013-09-02 04:35:00,
2013-09-01 22:40:00,62.4,33.7,0.00,North,0,0.0,0.0,34,0.00,,---,0.00,VWS V13.01,2013-09-02 04:40:00,
2013-09-01 22:45:00,62.4,33.7,0.00,North,0,0.0,0.0,34,0.00,,---,0.00,VWS V13.01,2013-09-02 04:45:00,
2013-09-01 22:50:00,62.6,33.9,0.00,North,0,0.0,0.0,34,0.00,,---,0.00,VWS V13.01,2013-09-02 04:50:00,
2013-09-01 22:55:00,62.6,33.9,0.00,North,0,0.0,0.0,34,0.00,,---,0.00,VWS V13.01,2013-09-02 04:55:00,
2013-09-01 23:00:00,62.6,33.9,0.00,North,0,0.0,0.0,34,0.00,,---,0.00,VWS V13.01,2013-09-02 05:00:00,
2013-09-01 23:05:00,62.6,33.9,0.00,North,0,0.0,0.0,34,0.00,,---,0.00,VWS V13.01,2013-09-02 05:05:00,
2013-09-01 23:10:00,62.6,33.9,0.00,North,0,0.0,0.0,34,0.00,,---,0.00,VWS V13.01,2013-09-02 05:10:00,
2013-09-01 23:15:00,62.6,33.9,0.00,North,0,0.0,0.0,34,0.00,,---,0.00,VWS V13.01,2013-09-02 05:15:00,
2013-09-01 23:20:00,62.8,34.0,0.00,North,0,0.0,0.0,34,0.00,,---,0.00,VWS V13.01,2013-09-02 05:20:00,
2013-09-01 23:25:00,62.8,34.0,0.00,North,0,0.0,0.0,34,0.00,,---,0.00,VWS V13.01,2013-09-02 05:25:00,
2013-09-01 23:30:00,62.8,34.0,0.00,North,0,0.0,0.0,34,0.00,,---,0.00,VWS V13.01,2013-09-02 05:30:00,
2013-09-01 23:35:00,62.8,34.0,0.00,North,0,0.0,0.0,34,0.00,,---,0.00,VWS V13.01,2013-09-02 05:35:00,
2013-09-01 23:40:00,63.0,34.2,0.00,North,0,0.0,0.0,34,0.00,,---,0.00,VWS V13.01,2013-09-02 05:40:00,
2013-09-01 23:45:00,63.0,34.2,0.00,North,0,0.0,0.0,34,0.00,,---,0.00,VWS V13.01,2013-09-02 05:45:00,
2013-09-01 23:50:00,63.1,34.3,0.00,North,0,0.0,0.0,34,0.00,,---,0.00,VWS V13.01,2013-09-02 05:50:00,
2013-09-01 23:55:00,63.1,34.3,0.00,North,0,0.0,0.0,34,0.00,,---,0.00,VWS V13.01,2013-09-02 05:55:00,